Osoyoos, British Columbia

3:56 AM PST on February 25, 2017 (GMT -0800)
Osoyoos

Weather History for CWYY - August, 2014

Change the Weather History Date:

Friday, August 8, 2014

  Actual Average (CYYF) Record (CYYF)
Temperature  
Mean Temperature 82 °F -  
Max Temperature 90 °F 83 °F 95 °F (2000)
Min Temperature 73 °F 56 °F 48 °F (2002)
Cooling Degree Days 16    
Growing Degree Days 32 (Base 50)    
Moisture  
Dew Point 43 °F    
Average Humidity 26    
Maximum Humidity 32    
Minimum Humidity 11    
Precipitation  
Precipitation 0.00 in - - ()
Sea Level Pressure  
Sea Level Pressure 29.87 in    
Wind  
Wind Speed 7 mph ()    
Max Wind Speed 10 mph    
Max Gust Speed 17 mph    
Averages and records for this station are not official NWS values.
T = Trace of Precipitation, MM = Missing Value Source: Averaged Metar Reports

Daily Weather History Graph

Daily Weather History Graph

Search for Another Location

Airport or City:

Trip Planner

Search our weather history database for the weather conditions in past years. The results will help you decide how hot, cold, wet, or windy it might be!

Date:

Astronomy

Aug. 08, 2014 Rise Set
Actual Time 5:40 AM PDT 8:25 PM PDT
Civil Twilight 5:03 AM PDT 9:01 PM PDT
Nautical Twilight 4:17 AM PDT 9:47 PM PDT
Astronomical Twilight 3:21 AM PDT 10:42 PM PDT
Moon 6:42 PM PDT (8/8) 3:14 AM PDT (8/8)
Length of Visible Light 15h 57m
Length of Day
14h 45m
Waxing Gibbous, 94% of the Moon is Illuminated
Aug 8
Waxing Gibbous
Aug 10
Full
Aug 17
Last Quarter
Aug 25
New
Sep 2
First Quarter

Hourly Weather History & Observations

Time (PDT) Temp. Dew Point Humidity Pressure Visibility Wind Dir Wind Speed Gust Speed Precip Events Conditions
12:00 AM 76.5 °F 42.6 °F 30% 29.83 in - NNW 8.1 mph - N/A   Unknown
1:00 AM 77.4 °F 41.5 °F 28% 29.84 in - NNW 8.1 mph - N/A   Unknown
2:00 AM 77.4 °F 43.2 °F 30% 29.85 in - NNW 6.9 mph - N/A   Unknown
3:00 AM 76.6 °F 42.3 °F 29% 29.85 in - North 6.9 mph - N/A   Unknown
4:00 AM 75.4 °F 40.5 °F 28% 29.85 in - North 8.1 mph - N/A   Unknown
5:00 AM 75 °F 40 °F 18% 29.86 in - North 10.4 mph - -  
5:00 AM 75.4 °F 38.3 °F 26% 29.86 in - North 10.4 mph 17.3 mph N/A   Unknown
6:00 AM 74.1 °F 40.6 °F 30% 29.87 in - NNW 10.4 mph 17.3 mph N/A   Unknown
7:00 AM 73.8 °F 42.4 °F 32% 29.88 in - NNW 9.2 mph 17.3 mph N/A   Unknown
8:00 AM 73.6 °F 42.3 °F 32% 29.90 in - NNW 10.4 mph - N/A   Unknown
9:00 AM 73.8 °F 41.9 °F 32% 29.91 in - NNW 9.2 mph - N/A   Unknown
10:00 AM 75.9 °F 44.1 °F 32% 29.91 in - NW 6.9 mph - N/A   Unknown
11:00 AM 80 °F 46 °F 20% 29.90 in - NNW 6.9 mph - -  
11:00 AM 80.1 °F 46.4 °F 31% 29.90 in - NW 6.9 mph 17.3 mph N/A   Unknown
12:00 PM 82.6 °F 47.1 °F 29% 29.89 in - NW 5.8 mph - N/A   Unknown
1:00 PM 84.0 °F 42.3 °F 23% 29.88 in - NNW 5.8 mph - N/A   Unknown
2:00 PM 86.7 °F 45.3 °F 24% 29.86 in - NNW 4.6 mph - N/A   Unknown
3:00 PM 86.9 °F 38.3 °F 18% 29.86 in - West 2.3 mph - N/A   Unknown
4:00 PM 88.9 °F 41.7 °F 19% 29.84 in - NW 5.8 mph - N/A   Unknown
5:00 PM 89 °F 43 °F 11% 29.84 in - NW 4.6 mph - -  
5:00 PM 89.2 °F 42.6 °F 20% 29.84 in - NW 4.6 mph - N/A   Unknown
6:00 PM 86.4 °F 42.3 °F 21% 29.84 in - North 5.8 mph - N/A   Unknown
7:00 PM 84.0 °F 47.5 °F 28% 29.86 in - NNW 9.2 mph - N/A   Unknown
8:00 PM 82.4 °F 41.9 °F 24% 29.87 in - NNW 10.4 mph 17.3 mph N/A   Unknown
10:00 PM 78.1 °F 45.9 °F 32% 29.91 in - NNW 4.6 mph - N/A   Unknown
11:00 PM 78 °F 40 °F 16% 29.93 in - North 6.9 mph - -  
11:00 PM 78.3 °F 40.3 °F 26% 29.93 in - North 6.9 mph 17.3 mph N/A   Unknown